COSMOS 618

Satellite information

Favourite Embed

Satellite Type and Status

PAYLOADIN ORBIT

Key statistics

Satellite COSMOS 618 at a glance.

Uptime

18891

Days in orbit

Revolutions

≈ 12.5

Per day

Orbit

LEO

Low Earth Orbit

Inclination

74.0

Latest

Satellite identification and parameters

Extended collection of information and parameters for COSMOS 618.

Object identification

Identified? True

Debris? False

Object name: COSMOS 618

International designator: 1973-104B

Object number (NORAD): 6986

Object ID (CCSDS): 6986

Country: COMMONWEALTH OF INDEPENDENT STATES (CIS)

Current information (Y/N): Y

RCS size: MEDIUM

Orbital parameters

Period: 115.207 minutes

Inclination: 74.0335 deg

SMA: 7842.956 km

Apoapsis: 1486.141 km

Periapsis: 1443.501 km

RAAN: 348.4677 deg

Eccentricy: 0.00271832

Argument of periapsis: 183.5214 deg

Mean anomaly: 188.7313 deg

Mean motion: 12.49922535 rev/day

Mean motion (dot): -0.00000011 rev/day2

B* drag term: 0.000030480715 1/REarth

Two-line elements (TLE)

Creation date: Sept. 8, 2025, 3:16 a.m.

Reference frame: TEME

Reference center: EARTH

Epoch: Sept. 7, 2025, 12:28 p.m. UTC

TLE line 0: 0 COSMOS 618

TLE line 1: 1 06986U 73104B 25250.51979926 -.00000011 00000-0 30481-4 0 9999

TLE line 2: 2 06986 74.0335 348.4677 0027183 183.5214 188.7313 12.49922535359917

Live tracking on map

Real-time ground track for satellite COSMOS 618.

In-orbit conjunctions

There are no conjunctions computed for COSMOS 618, at the moment. Check back to stay up to date, as we update our databases every day.

Go to all conjunctions

Associated space launch

Military communications satellites

COSMOS 618 was lifted into orbit during the mission ‘Kosmos-3M | Strela-1M 57-64’, on board a Kosmos-3M space rocket.

The launch took place on Dec. 19, 1973, 9:43 a.m. from 132/2.

For more information about the launch, click the button.

Launch to space Kosmos-3M | Strela-1M 57-64
Kosmos-3M | Strela-1M 57-64

Agency: N/A

Status: Launch Successful

Launch date: Dec. 19, 1973, 9:43 a.m. UTC

Rocket: Kosmos-3M

Launch pad: 132/2

Location: Plesetsk Cosmodrome, Russian Federation

...

Latest news about this satellite

There are no fresh news available about this satellite. Check back as we update our databases every day.


Newsletter sign-up

Weekly statistics, charts and insights to help you stay on top of the space industry.